Location: Kumla
(59.1265°N, 15.1401°E)
Time: 05:34:43
(UTC+01:00)

Vanguard 2 Rocket - Pass Details

Date: 08 December 2023
Orbit: 555 x 3309 km, 32.9° (Epoch: 03 March)

Event Time Altitude Azimuth Distance (km) Brightness Sun altitude
Rises 17:51:54 0° 258° (WSW) 7,002 13.1 -19.4°
Reaches altitude 10° 17:57:54 10° 246° (WSW) 6,180 12.3 -20.2°
Maximum altitude 18:11:21 23° 204° (SSW) 5,122 11.0 -21.9°
Drops below altitude 10° 18:23:51 10° 161° (SSE) 5,683 10.8 -23.5°
Sets 18:29:04 0° 148° (SSE) 6,336 10.9 -24.2°
